Date String (YYYY-MM-DD hh:mm:ss) UTC,Instrument flags,Ambient pressure (hPa),Sample flow (lpm),Bypass flow (lpm),Sample temperature (°C),Ambient temperature (°C),ASC tube jacket temperature (°C),LED temperature (°C),Box temperature (°C),Sample RH (%),Span deviation,Mass concentration (μg/m³),Mass concentration (μg/m³),Mass concentration (μg/m³)
DateTimeUTC,F1_M11,P_M11,Q1_M11,Q2_M11,T1_M11,T2_M11,T3_M11,T4_M11,T5_M11,U1_M11,ZSPAN_M11,X0_M11,X2_M11,X1_M11
2022-12-27 06:00:00,,0822.4,5.02,0.00,21.4,20.3,00.0,30.4,23.2,14.8,0000.0,0000.36,0000.24,0000.20
2022-12-27 06:01:00,,0822.4,5.01,0.00,21.4,20.2,00.0,30.4,23.1,14.8,0000.0,0000.36,0000.24,0000.20
2022-12-27 06:02:00,,0822.3,5.00,0.00,21.4,20.2,00.0,30.4,23.1,14.9,0000.0,0000.37,0000.24,0000.19
2022-12-27 06:03:00,,0822.3,4.97,0.00,21.4,20.3,00.0,30.4,23.1,14.8,0000.0,0000.37,0000.24,0000.19
2022-12-27 06:04:00,,0822.2,5.01,0.00,21.4,20.3,00.0,30.4,23.1,14.4,0000.0,0000.36,0000.24,0000.19
2022-12-27 06:05:00,,0822.3,5.04,0.00,21.4,20.3,00.0,30.4,23.2,14.7,0000.0,0000.36,0000.24,0000.19
2022-12-27 06:06:00,,0822.3,5.02,0.00,21.4,20.2,00.0,30.4,23.1,14.9,0000.0,0000.31,0000.22,0000.18
2022-12-27 06:07:00,,0822.2,4.98,0.00,21.4,20.2,00.0,30.4,23.1,15.1,0000.0,0000.33,0000.23,0000.19
2022-12-27 06:08:00,,0822.3,4.97,0.00,21.4,20.1,00.0,30.4,23.1,15.1,0000.0,0000.36,0000.24,0000.20
2022-12-27 06:09:00,,0822.3,5.02,0.00,21.4,20.1,00.0,30.4,23.1,15.2,0000.0,0000.35,0000.24,0000.21
2022-12-27 06:10:00,,0822.2,5.03,0.00,21.4,20.1,00.0,30.4,23.1,14.9,0000.0,0000.34,0000.24,0000.21
2022-12-27 06:11:00,,0822.3,5.00,0.00,21.4,20.1,00.0,30.4,23.1,14.7,0000.0,0000.34,0000.24,0000.21
2022-12-27 06:12:00,,0822.2,4.99,0.00,21.4,20.2,00.0,30.4,23.1,14.7,0000.0,0000.35,0000.24,0000.21
2022-12-27 06:13:00,,0822.3,4.96,0.00,21.4,20.2,00.0,30.4,23.1,14.8,0000.0,0000.32,0000.22,0000.20
2022-12-27 06:14:00,,0822.2,5.00,0.00,21.4,20.3,00.0,30.4,23.2,15.0,0000.0,0000.36,0000.24,0000.20
2022-12-27 06:15:00,,0822.2,5.02,0.00,21.4,20.3,00.0,30.4,23.2,14.9,0000.0,0000.38,0000.25,0000.20
2022-12-27 06:16:00,,0822.2,5.02,0.00,21.5,20.4,00.0,30.4,23.3,15.0,0000.0,0000.38,0000.25,0000.20
2022-12-27 06:17:00,,0822.3,4.96,0.00,21.5,20.5,00.0,30.4,23.2,15.1,0000.0,0000.40,0000.26,0000.21
2022-12-27 06:18:00,,0822.3,4.99,0.00,21.5,20.5,00.0,30.4,23.3,15.2,0000.0,0000.36,0000.24,0000.20
2022-12-27 06:19:00,,0822.3,5.02,0.00,21.5,20.6,00.0,30.4,23.3,15.1,0000.0,0000.33,0000.22,0000.19
2022-12-27 06:20:00,,0822.3,5.03,0.00,21.6,20.6,00.0,30.4,23.4,15.5,0000.0,0000.31,0000.21,0000.18
2022-12-27 06:21:00,,0822.2,4.96,0.00,21.6,20.6,00.0,30.4,23.4,15.2,0000.0,0000.38,0000.22,0000.18
2022-12-27 06:22:00,,0822.2,4.98,0.00,21.6,20.6,00.0,30.4,23.4,15.2,0000.0,0000.47,0000.25,0000.18
2022-12-27 06:23:00,,0822.2,5.02,0.00,21.6,20.7,00.0,30.4,23.4,15.3,0000.0,0000.51,0000.27,0000.19
2022-12-27 06:24:00,,0822.2,5.02,0.00,21.6,20.6,00.0,30.5,23.4,15.1,0000.0,0000.54,0000.29,0000.20
2022-12-27 06:25:00,,0822.2,5.00,0.00,21.6,20.6,00.0,30.5,23.4,14.9,0000.0,0000.53,0000.29,0000.20
2022-12-27 06:26:00,,0822.2,4.98,0.00,21.7,20.6,00.0,30.5,23.4,14.9,0000.0,0000.57,0000.31,0000.21
2022-12-27 06:27:00,,0822.2,4.98,0.00,21.7,20.6,00.0,30.5,23.5,14.5,0000.0,0000.57,0000.32,0000.21
2022-12-27 06:28:00,,0822.2,5.02,0.00,21.7,20.6,00.0,30.5,23.5,14.6,0000.0,0000.57,0000.31,0000.21
2022-12-27 06:29:00,,0822.2,5.04,0.00,21.7,20.7,00.0,30.5,23.5,15.1,0000.0,0000.59,0000.33,0000.23
2022-12-27 06:30:00,,0822.1,5.01,0.00,21.7,20.7,00.0,30.5,23.5,15.3,0000.0,0000.66,0000.39,0000.28
2022-12-27 06:31:00,,0822.2,4.98,0.00,21.7,20.7,00.0,30.5,23.6,14.6,0000.0,0000.71,0000.41,0000.29
2022-12-27 06:32:00,,0822.2,4.98,0.00,21.7,20.7,00.0,30.6,23.6,14.7,0000.0,0000.70,0000.43,0000.31
2022-12-27 06:33:00,,0822.2,5.02,0.00,21.8,20.7,00.0,30.6,23.5,14.8,0000.0,0000.63,0000.42,0000.32
2022-12-27 06:34:00,,0822.2,5.02,0.00,21.8,20.7,00.0,30.6,23.5,14.6,0000.0,0001.15,0000.42,0000.33
2022-12-27 06:35:00,,0822.1,5.00,0.00,21.8,20.7,00.0,30.6,23.5,14.4,0000.0,0002.65,0000.42,0000.35
2022-12-27 06:36:00,,0822.1,4.97,0.00,21.8,20.7,00.0,30.6,23.5,14.4,0000.0,0002.64,0000.43,0000.36
2022-12-27 06:37:00,,0822.1,4.99,0.00,21.8,20.7,00.0,30.6,23.5,14.5,0000.0,0002.60,0000.43,0000.38
2022-12-27 06:38:00,,0822.1,5.03,0.00,21.8,20.7,00.0,30.6,23.6,14.2,0000.0,0002.61,0000.44,0000.40
2022-12-27 06:39:00,,0822.1,5.02,0.00,21.8,20.7,00.0,30.6,23.6,14.3,0000.0,0002.75,0000.49,0000.44
2022-12-27 06:40:00,,0822.1,4.98,0.00,21.8,20.8,00.0,30.7,23.6,14.3,0000.0,0002.86,0000.53,0000.48
2022-12-27 06:41:00,,0821.9,4.96,0.00,21.9,20.7,00.0,30.7,23.5,14.0,0000.0,0002.92,0000.54,0000.47
2022-12-27 06:42:00,,0822.2,4.99,0.00,21.9,20.7,00.0,30.7,23.6,14.0,0000.0,0002.96,0000.57,0000.48
2022-12-27 06:43:00,,0822.1,5.03,0.00,21.9,20.7,00.0,30.7,23.5,14.2,0000.0,0002.97,0000.60,0000.52
2022-12-27 06:44:00,,0822.1,5.02,0.00,21.9,20.7,00.0,30.7,23.5,14.2,0000.0,0003.26,0000.68,0000.59
2022-12-27 06:45:00,,0822.0,5.00,0.00,21.9,20.7,00.0,30.7,23.6,13.8,0000.0,0002.89,0000.70,0000.60
2022-12-27 06:46:00,,0821.8,4.98,0.00,21.9,20.7,00.0,30.7,23.6,14.0,0000.0,0001.30,0000.71,0000.60
2022-12-27 06:47:00,,0822.0,4.98,0.00,21.9,20.8,00.0,30.7,23.6,13.8,0000.0,0001.31,0000.72,0000.62
2022-12-27 06:48:00,,0822.1,5.01,0.00,21.9,20.8,00.0,30.7,23.6,14.3,0000.0,0001.35,0000.73,0000.62
2022-12-27 06:49:00,,0822.0,5.02,0.00,21.9,20.8,00.0,30.7,23.7,15.0,0000.0,0001.64,0000.85,0000.71
2022-12-27 06:50:00,,0822.0,5.02,0.00,21.9,20.8,00.0,30.8,23.7,15.0,0000.0,0001.73,0000.93,0000.78
2022-12-27 06:51:00,,0821.8,4.99,0.00,21.9,20.7,00.0,30.8,23.6,14.7,0000.0,0001.71,0000.97,0000.82
2022-12-27 06:52:00,,0821.8,4.97,0.00,21.9,20.7,00.0,30.8,23.7,13.3,0000.0,0001.61,0000.91,0000.79
2022-12-27 06:53:00,,0821.9,4.98,0.00,21.9,20.7,00.0,30.8,23.7,13.8,0000.0,0001.55,0000.88,0000.77
2022-12-27 06:54:00,,0822.1,5.02,0.00,21.9,20.7,00.0,30.8,23.7,14.0,0000.0,0001.49,0000.84,0000.74
2022-12-27 06:55:00,,0821.8,5.02,0.00,21.9,20.7,00.0,30.8,23.7,13.6,0000.0,0001.20,0000.74,0000.65
2022-12-27 06:56:00,,0821.8,5.01,0.00,21.9,20.7,00.0,30.8,23.7,13.4,0000.0,0001.08,0000.70,0000.63
2022-12-27 06:57:00,,0821.8,4.97,0.00,21.9,20.7,00.0,30.8,23.7,13.2,0000.0,0001.04,0000.67,0000.61
2022-12-27 06:58:00,,0821.8,4.99,0.00,21.9,20.7,00.0,30.8,23.7,13.3,0000.0,0001.04,0000.65,0000.58
2022-12-27 06:59:00,,0821.8,5.00,0.00,22.0,20.7,00.0,30.8,23.7,14.2,0000.0,0001.07,0000.66,0000.58
